Location: Budapest
(47.4979°N, 19.0402°E)
Time: 12:45:45
(UTC+01:00)

Tiangong 2 - Visible Passes

Search period start: 17 February 2019 00:00
Search period end: 27 February 2019 00:00
Orbit: 381 x 390 km, 42.8° (Epoch: 16 February)

Date Brightness Start Highest point End Pass type
(mag) Time Alt. Az. Time Alt. Az. Time Alt. Az.
17 Feb 3.1 19:01:54 10° WSW 19:04:17 20° SSW 19:04:43 19° S visible
18 Feb 2.9 18:02:33 10° WSW 18:05:14 25° SSW 18:07:55 10° SE visible
19 Feb 3.8 18:40:37 10° WSW 18:42:20 14° SSW 18:44:05 10° S visible
